Location: Kolin
(50.0330°N, 15.2000°E)
Time: 10:49:56
(UTC+02:00)

ISS - Pass Details

Date: 18 May 2021
Orbit: 417 x 422 km, 51.6° (Epoch: 13 June)

Event Time Altitude Azimuth Distance (km) Brightness Sun altitude
Rises 22:53:13 0° 263° (W) 2,362 0.4 -15.2°
Reaches altitude 10° 22:55:19 10° 266° (W) 1,500 -0.6 -15.3°
Maximum altitude 22:58:41 71° 351° (N) 448 -3.5 -15.6°
Drops below altitude 10° 23:02:03 10° 76° (ENE) 1,506 -1.1 -15.8°
Enters shadow 23:03:32 - 78° (ENE) 2,109 -0.4 -15.9°
